Theta_e
289 291 291 290 290 291 289 290 286 289 289 293 296 297 297 296 294 290 289 289 289 288 286 286 286 287 288 288 289 289 288 286 286 287 287 287 286 287 287 287 287 287 287 288
285 289 289 287 290 290 290 291 290 290 290 297 299 300 297 295 291 289 288 288 288 287 286 285 285 287 287 287 287 287 286 285 285 285 285 285 285 286 286 286 285 285 285 286
281 287 287 283 288 289 291 292 292 288 293 297 296 297 296 295 292 290 288 287 286 285 285 285 285 287 287 287 287 286 285 284 284 284 283 283 283 283 284 284 284 282 283 284
282 284 276 288 293 293 291 293 294 294 295 296 297 300 300 297 293 290 288 287 286 285 285 286 286 286 287 287 286 285 284 282 283 282 282 282 282 281 282 282 281 281 280 281
280 280 284 287 290 289 288 288 294 293 295 296 295 293 289 293 293 290 288 286 286 286 285 285 285 286 286 285 284 284 282 281 281 281 280 280 280 280 281 281 281 280 280 279
282 278 275 287 292 294 292 284 294 295 295 291 289 285 289 289 289 287 286 285 284 284 284 283 285 286 284 283 283 281 281 282 282 281 279 279 280 280 280 281 280 281 280 279
281 279 283 291 291 293 282 286 292 295 295 291 288 290 288 288 285 284 284 284 284 283 281 282 284 284 282 282 281 282 283 282 281 281 280 280 281 281 280 280 280 279 280 280
282 279 277 291 290 284 291 290 293 293 293 290 286 284 283 283 282 282 282 282 283 282 282 284 285 284 281 280 282 282 282 281 280 280 281 281 280 281 280 280 279 279 279 279
285 286 290 293 291 291 291 291 292 292 291 288 283 281 282 281 280 281 281 282 283 283 284 285 285 285 282 283 283 282 281 279 280 280 280 281 280 280 280 280 279 278 278 278
285 290 289 291 291 291 291 291 292 292 289 287 281 281 281 280 280 280 281 283 284 284 283 283 283 283 284 283 284 283 281 281 281 279 279 280 280 280 279 278 278 278 277 276
287 288 288 290 292 292 289 290 290 290 289 284 282 281 281 280 280 280 281 283 284 283 283 282 283 282 283 283 283 281 280 280 280 279 279 278 278 278 278 277 276 276 276 276
287 292 292 291 293 291 288 288 289 288 285 286 285 282 282 280 281 281 280 282 281 281 281 281 282 282 282 282 282 281 279 279 279 279 279 278 278 276 275 275 275 275 275 275
291 292 289 290 290 290 288 288 288 287 287 284 284 284 283 281 282 281 281 280 279 278 278 279 278 278 280 281 281 279 279 278 278 278 277 277 277 276 276 275 273 273 273 274
291 289 285 287 285 287 286 286 287 287 286 285 284 284 283 282 281 280 279 279 278 277 276 276 275 274 277 278 277 275 276 276 278 277 277 277 276 276 276 275 274 275 274 273
288 288 288 288 286 285 285 284 283 283 283 283 284 283 282 280 279 279 279 279 278 277 276 275 273 273 275 276 276 276 277 277 277 277 276 275 277 277 276 275 275 275 275 273
287 287 287 285 284 284 283 283 282 282 282 282 282 281 281 281 279 278 278 279 277 276 276 274 274 274 274 275 275 276 275 274 276 277 277 276 276 275 274 274 273 273 272 270
284 283 284 283 283 283 283 284 284 283 282 282 281 281 280 278 277 277 277 277 277 275 275 275 273 272 274 276 277 278 278 276 273 276 275 275 274 273 273 272 271 272 271 268
288 288 288 287 284 283 283 283 283 283 282 282 280 278 276 275 275 274 274 274 273 273 275 275 274 273 274 275 277 277 276 275 275 274 273 272 272 272 271 271 270 269 270 269
287 287 287 286 286 285 283 282 282 282 281 278 276 274 275 275 273 272 273 272 271 271 272 273 274 275 275 275 275 276 275 274 273 272 271 269 270 270 269 270 269 269 268 268
286 286 286 285 285 284 282 283 281 279 277 276 275 274 273 272 271 271 272 273 275 277 274 275 275 275 275 274 273 275 274 273 271 271 270 269 269 268 268 265 266 267 267 267
284 284 283 282 282 283 281 280 278 276 277 275 274 273 272 271 271 272 273 273 274 274 276 275 276 275 274 273 273 274 272 271 270 270 269 268 268 268 267 266 266 266 265 265
282 281 281 281 280 280 280 280 279 277 275 275 274 273 271 271 271 272 275 275 274 273 275 275 275 274 273 271 272 272 271 270 270 269 269 268 268 267 266 265 264 264 264 264
282 281 281 279 280 280 280 279 278 277 276 274 272 272 273 272 273 272 272 275 275 274 276 276 272 270 270 272 271 270 269 268 268 267 267 266 266 266 265 264 263 263 262 261
282 282 281 281 280 279 278 278 279 278 277 276 275 274 274 273 275 277 277 275 274 274 276 272 270 269 270 271 270 269 268 268 267 266 264 260 265 264 264 262 262 262 261 260
282 281 280 280 280 281 280 279 278 278 277 276 275 275 275 276 276 277 276 275 273 274 274 269 268 268 271 270 269 267 267 267 266 266 265 265 264 263 263 262 260 260 259 259
281 283 283 282 283 282 281 279 279 278 278 276 276 277 277 278 278 277 276 274 274 273 272 269 269 270 270 269 267 266 266 264 263 264 263 263 262 262 261 260 259 259 259 258
282 282 282 281 281 281 281 280 279 278 278 277 276 277 277 277 276 275 274 274 273 273 271 271 270 269 269 267 266 265 265 265 262 263 263 263 262 262 260 259 259 259 258 257
Wind_Speed
19 18 17 17 18 18 21 21 19 21 21 23 15 13 16 17 16 15 15 12 9 7 6 6 5 5 6 6 7 7 7 8 9 9 9 9 9 10 10 12 13 13 13 15
21 18 19 21 24 25 24 24 24 23 30 20 17 8 15 18 19 17 15 12 10 9 8 7 6 6 6 6 7 7 8 8 9 9 10 10 10 11 11 11 13 14 14 15
18 16 17 17 25 25 26 23 22 23 26 20 11 13 19 21 19 19 16 14 12 11 9 7 7 6 7 7 7 8 8 8 8 8 9 10 10 11 11 12 12 13 14 14
13 7 16 14 5 11 17 20 23 23 22 16 14 13 14 17 19 17 17 15 13 10 10 8 8 6 6 7 7 8 9 9 9 9 9 9 10 11 11 10 11 12 13 14
10 14 19 21 8 6 10 19 16 18 18 9 5 11 5 10 14 14 15 13 9 10 10 8 7 7 7 8 7 9 8 9 9 9 9 10 10 11 11 10 11 12 13 14
15 17 20 17 14 7 5 13 13 17 14 16 15 9 9 15 16 15 15 13 13 9 9 9 7 8 8 7 9 8 8 7 8 10 10 10 10 11 10 8 10 9 12 13
17 17 13 8 6 9 8 4 1 7 10 17 14 5 20 17 15 14 15 15 14 12 9 9 8 8 9 8 8 7 8 8 9 9 10 9 9 9 9 10 10 11 11 12
13 10 12 10 11 10 1 1 3 6 12 13 10 15 16 16 17 16 16 16 14 12 11 10 11 11 10 9 7 7 7 8 9 8 7 7 9 8 10 10 10 10 11 10
9 3 3 15 0 4 2 3 6 10 11 14 16 17 17 17 17 16 16 14 13 12 12 10 9 9 10 10 9 8 8 8 7 7 7 7 9 9 8 9 9 9 9 9
1 7 7 10 7 4 4 4 8 12 15 16 16 17 18 16 15 14 13 14 12 13 12 11 9 8 9 8 7 7 7 7 6 7 7 8 7 8 9 9 8 8 9 10
9 5 5 11 13 10 8 9 11 12 15 16 19 18 18 16 15 14 12 11 12 11 11 11 10 9 8 7 7 7 7 6 6 5 6 7 9 9 8 10 10 8 9 8
7 2 6 3 10 11 11 12 14 16 16 16 17 18 18 16 14 14 13 12 11 11 12 11 10 9 8 7 6 6 6 5 5 5 5 5 4 7 12 11 14 14 16 13
2 5 6 5 9 10 10 12 13 14 15 18 15 17 19 16 14 15 14 13 11 11 10 10 10 9 7 7 6 6 6 6 5 4 5 5 4 4 4 7 8 11 13 14
8 8 6 7 6 9 11 12 13 13 14 15 16 17 17 16 16 14 14 13 13 12 10 10 10 9 7 8 9 8 7 7 5 5 5 4 4 4 3 4 4 4 6 7
2 1 1 8 13 12 13 13 15 15 15 16 16 17 16 17 16 15 14 14 13 12 10 10 10 8 7 7 8 8 6 5 5 5 4 3 2 2 3 4 4 5 5 7
5 7 9 11 13 13 14 15 15 16 16 16 16 16 16 15 15 15 14 14 14 11 11 9 9 8 7 8 8 7 7 6 4 3 2 3 3 4 4 4 5 5 5 7
9 7 9 11 12 13 13 12 13 14 15 16 16 16 16 16 16 15 13 11 9 11 10 9 9 6 5 5 5 4 5 5 4 3 3 3 3 4 4 4 4 4 5 7
1 2 8 11 13 13 12 12 13 14 14 15 14 13 13 13 14 13 12 11 11 10 9 9 8 6 5 5 3 4 3 3 3 3 3 3 4 4 4 4 4 5 5 5
2 5 8 10 12 12 12 12 13 12 12 13 13 13 12 11 13 13 13 12 11 11 8 8 10 8 7 5 4 3 4 4 3 3 3 3 3 4 4 4 4 5 5 5
7 8 9 11 10 11 12 10 13 13 13 14 13 13 12 12 13 13 12 12 10 8 11 10 9 7 7 6 3 4 3 4 4 3 3 3 4 3 3 3 4 4 5 5
8 8 9 10 10 10 11 12 13 13 13 13 14 13 13 13 12 13 13 10 8 12 11 11 7 6 5 6 4 4 4 4 3 3 3 3 3 3 3 4 4 4 4 5
7 9 9 10 11 11 11 11 12 13 13 12 12 13 14 13 13 11 8 9 10 13 9 7 7 8 7 7 4 4 4 4 4 3 3 3 3 2 3 3 3 4 4 5
6 8 8 8 9 10 9 9 10 13 13 13 14 15 13 11 11 11 10 12 11 11 8 7 11 12 10 5 5 5 5 4 3 3 3 3 2 2 2 3 3 3 4 5
8 8 8 8 9 10 10 9 9 10 10 11 12 13 13 11 9 7 8 13 15 13 8 10 11 12 8 5 5 5 4 4 3 3 4 1 2 1 1 2 3 4 4 4
8 8 8 9 9 7 8 10 9 10 11 10 12 11 11 9 8 9 10 11 16 12 9 12 13 11 6 5 5 5 4 4 3 3 3 2 1 0 1 2 2 4 4 4
8 6 6 7 4 6 7 9 8 8 9 10 9 9 9 8 8 10 10 13 12 12 9 9 8 7 6 6 6 5 4 5 5 3 2 1 0 1 1 2 2 3 3 4
5 6 5 5 4 6 7 8 9 10 10 10 10 10 10 9 10 10 12 11 10 10 9 8 8 7 6 6 6 5 4 4 3 3 2 1 2 0 1 2 2 3 3 4
Wind_Direction
266 268 270 252 246 242 239 240 245 270 271 274 279 203 202 186 180 175 182 176 164 152 135 123 103 92 74 55 57 49 49 42 39 32 32 31 27 27 26 29 29 28 27 28
263 262 262 262 257 257 258 258 258 261 266 269 275 215 188 187 180 181 182 170 159 144 150 130 127 101 90 76 64 62 51 47 42 37 35 31 29 33 32 30 31 28 27 27
258 257 257 255 247 253 255 253 250 253 258 276 235 214 196 190 187 183 167 166 161 157 152 140 133 107 92 84 80 73 61 54 50 42 42 35 31 36 34 34 35 31 29 27
262 279 235 252 286 276 254 249 247 250 261 274 279 227 194 194 185 171 165 159 157 156 150 145 137 120 91 90 85 80 72 60 51 49 49 42 40 39 36 34 37 37 29 25
244 250 262 274 230 214 193 247 245 246 247 236 116 112 124 169 165 162 153 145 143 149 150 140 134 125 116 93 91 85 72 64 53 52 46 41 38 39 34 34 35 36 35 28
244 249 258 269 278 166 178 266 225 234 239 158 162 192 174 163 153 136 129 139 139 137 137 131 125 126 114 105 91 81 71 68 66 59 51 44 40 41 39 38 39 37 37 31
235 242 255 264 173 166 199 265 258 205 184 179 195 346 127 141 132 130 138 141 143 139 130 124 124 116 113 106 95 100 92 72 60 53 63 47 53 47 43 46 41 37 34 34
220 236 230 178 156 216 35 47 139 164 173 164 125 128 128 133 136 138 139 146 145 139 134 137 136 128 117 106 106 93 89 80 67 56 55 55 50 49 48 40 41 35 31 29
218 267 109 180 50 136 197 168 168 156 159 146 144 146 144 140 141 141 145 149 148 147 140 132 137 133 123 131 132 127 107 93 78 67 59 55 51 45 44 44 39 29 25 26
235 202 184 208 205 193 180 184 162 151 152 150 146 150 145 141 142 145 150 155 153 145 140 133 127 120 117 122 128 119 106 93 88 69 58 45 56 52 42 33 31 33 26 22
239 230 224 220 213 188 166 143 143 147 147 148 149 149 145 145 146 148 147 150 152 147 138 136 133 123 120 124 120 110 104 97 92 83 71 81 57 31 48 50 33 30 23 34
248 282 245 15 185 165 161 154 154 148 145 155 150 149 148 147 149 148 148 148 141 137 138 135 129 122 116 110 117 121 111 92 67 74 66 55 78 102 61 47 50 40 41 33
324 66 87 108 131 163 153 148 149 152 153 151 152 150 148 147 148 145 145 138 137 133 128 121 108 96 82 91 101 99 102 101 104 79 67 64 54 40 57 110 85 50 34 29
126 126 105 157 150 143 139 139 146 145 149 150 147 149 147 144 145 147 146 141 137 134 128 122 113 99 95 97 97 94 93 80 89 78 74 71 59 51 36 13 5 26 86 16
125 343 38 134 137 138 138 140 143 145 147 148 149 148 149 149 150 145 140 139 139 133 129 125 118 111 107 108 115 119 114 105 95 86 65 47 45 37 9 3 8 8 12 13
111 109 131 145 145 145 150 153 148 150 153 149 150 151 151 146 141 141 143 147 149 146 143 130 126 121 125 121 123 119 102 90 70 85 79 42 35 22 16 10 10 15 25 8
125 138 151 156 159 161 163 161 156 155 153 154 152 149 146 144 143 141 140 145 121 130 133 135 127 128 132 147 152 122 117 110 70 94 57 41 39 34 18 16 11 9 24 38
341 158 181 170 165 164 163 162 159 158 162 155 144 139 141 150 147 143 139 133 124 123 127 121 130 136 140 141 142 114 112 106 94 87 75 50 30 40 30 20 15 8 8 35
61 141 155 159 162 162 162 160 159 153 143 134 139 144 145 138 141 141 140 137 137 138 135 135 139 146 142 131 142 123 117 115 107 88 83 95 62 43 30 16 11 9 4 15
109 124 137 146 149 154 151 142 137 137 140 141 139 141 142 140 139 139 143 148 154 134 144 147 155 151 139 130 153 116 123 125 115 93 55 73 62 51 37 38 1 2 11 13
126 126 132 135 139 134 138 142 142 147 149 147 150 150 148 142 145 146 151 152 141 146 147 150 159 148 144 140 151 122 122 119 111 102 91 85 98 50 35 18 11 8 7 10
139 139 138 140 144 144 150 152 148 145 150 149 140 138 141 145 149 160 168 153 149 152 153 158 157 147 129 155 125 130 127 122 122 121 114 91 66 44 36 16 1 2 6 5
142 136 138 145 151 144 143 149 154 155 155 151 150 152 160 159 163 161 159 154 149 161 157 152 130 137 140 137 131 130 124 128 123 110 103 87 71 44 17 7 349 2 1 358
138 139 137 135 135 145 150 152 158 156 153 152 152 155 152 156 165 173 142 154 148 158 149 135 143 143 149 137 138 131 139 128 133 130 109 121 79 56 3 344 354 356 354 344
142 139 145 153 162 162 148 151 148 148 148 146 148 151 161 166 161 156 152 154 153 153 143 145 145 148 148 145 142 140 141 150 143 152 147 104 78 316 321 19 351 357 342 340
156 164 162 174 172 157 156 161 162 159 159 152 153 159 166 162 149 150 154 151 157 148 148 149 155 160 149 144 144 145 147 135 170 153 126 146 169 265 345 356 336 335 340 333
149 156 155 159 162 166 168 174 166 166 166 158 151 158 154 151 152 148 147 152 152 157 154 154 157 165 150 149 146 152 154 150 149 146 155 198 239 241 306 304 332 334 319 314